Location: Colle Santa Colomba
(42.0333°N, 12.5667°E)
Time: 04:04:36
(UTC+00:00)

H-2A R/B - Pass Details

Date: 25 October 2021
Orbit: 732 x 837 km, 98.2° (Epoch: 05 December)

Event Time Altitude Azimuth Distance (km) Brightness Sun altitude
Rises 17:01:46 0° 161° (SSE) 3,340 5.2 -9.7°
Reaches altitude 10° 17:04:05 10° 160° (SSE) 2,421 4.5 -10.1°
Maximum altitude 17:09:28 77° 75° (ENE) 859 2.1 -11.1°
Drops below altitude 10° 17:14:57 10° 350° (N) 2,460 4.7 -12.1°
Sets 17:17:19 0° 349° (N) 3,397 5.4 -12.6°
